RH
13 19 20 18 18 18 18 19 19 20 23 24 26 28 26 21 19 19 16 17 20 19 21 21 20 22 25 28 32 33 34 33 32 33 32 34 37 39 40 40 41 41 43 43 41 40 38 37 37 38 38 39 37 37 36 35 34 31 29 29 28 28 28 28 28 28 28 29 30 30 30 30 30 29 29 30 30 29 28 28 29 28 27 26 25 25
13 16 18 16 15 15 16 19 20 21 22 23 26 27 24 22 20 17 16 19 22 21 21 21 22 25 28 30 34 37 39 36 34 35 35 35 39 44 46 45 44 45 46 45 42 40 39 39 40 39 39 39 38 37 37 36 34 31 30 30 30 30 31 32 32 34 34 36 38 39 38 37 36 35 37 37 36 35 34 32 32 32 32 31 30 28
16 15 16 16 15 16 19 21 20 18 20 23 25 26 24 22 20 17 17 19 22 24 22 21 23 27 30 33 34 38 40 38 35 36 37 38 43 49 50 48 47 48 48 45 43 41 41 42 42 40 39 40 39 38 37 36 34 33 32 32 34 35 36 37 37 38 39 42 47 49 49 47 45 42 42 43 43 43 42 39 37 36 36 35 34 33
15 13 14 15 16 19 21 21 20 18 20 23 22 24 25 22 20 17 16 18 23 27 25 24 28 31 34 35 34 37 39 38 38 40 40 43 49 52 52 52 52 50 49 47 46 46 45 44 43 41 42 41 40 39 38 36 35 35 35 36 38 38 39 41 41 42 44 45 46 49 51 52 51 48 46 46 45 46 47 45 42 41 40 39 37 36
14 12 14 17 19 20 20 22 22 18 19 22 22 22 22 20 20 19 19 22 24 28 30 29 32 35 38 39 38 39 40 40 41 43 45 49 52 53 55 56 55 53 53 51 49 48 47 45 44 44 43 41 40 40 39 38 38 39 39 41 42 41 41 45 45 44 45 45 44 45 46 47 49 50 49 48 47 49 51 48 44 42 42 41 40 38
17 14 14 18 20 20 21 21 20 18 18 23 25 22 19 20 22 22 24 27 28 31 32 32 39 43 40 40 42 42 42 42 44 46 50 53 54 56 58 58 58 58 55 53 52 52 50 49 48 46 43 42 42 43 43 41 41 42 44 47 49 47 47 48 46 44 44 46 47 48 50 53 56 56 54 53 53 53 54 53 49 46 45 43 42 41
17 17 17 18 20 20 22 20 18 20 19 21 25 22 21 24 25 25 26 30 33 34 31 33 45 48 39 37 42 44 46 45 48 52 55 56 58 59 60 61 61 59 56 55 55 54 53 51 48 46 45 45 45 46 46 44 44 46 47 50 54 54 51 48 46 46 48 54 57 58 60 63 65 65 61 60 60 60 58 58 57 53 49 47 46 45
16 19 21 21 22 21 19 17 19 22 20 22 26 24 24 26 26 27 28 32 36 35 36 38 41 41 37 39 45 47 49 51 54 59 60 60 61 63 64 64 61 59 58 58 57 55 54 52 50 50 49 48 49 49 46 45 47 49 49 51 55 55 52 50 51 52 53 61 67 65 63 63 65 66 64 62 63 64 63 61 59 55 53 52 51 49
17 20 21 23 23 20 16 15 20 23 21 24 28 26 27 29 28 29 29 33 36 38 43 41 36 38 38 38 46 50 52 58 61 64 64 63 66 67 67 65 61 60 60 59 58 57 56 55 55 54 52 51 51 48 45 48 52 53 51 51 53 52 50 49 52 53 53 60 70 69 67 67 68 69 70 68 68 67 65 63 59 57 57 57 55 54
19 20 21 23 21 18 18 19 21 23 23 25 27 28 29 29 27 27 31 34 35 41 46 40 36 42 41 36 45 56 60 65 68 69 69 67 67 67 63 62 60 59 58 58 58 58 58 58 57 56 54 53 51 48 48 54 58 57 53 52 52 49 47 46 46 48 50 57 68 71 71 72 72 74 77 75 76 76 72 69 66 65 64 62 60 61
21 20 22 24 21 20 22 23 23 24 24 25 28 29 26 26 27 30 37 36 36 47 48 38 36 44 47 45 50 59 63 66 69 70 70 67 64 62 59 59 59 57 58 60 60 60 59 58 57 56 56 55 51 49 55 60 61 60 57 55 55 51 49 47 46 49 51 56 66 73 77 79 80 83 85 82 83 85 83 79 77 75 75 72 69 68
25 24 25 25 23 24 26 26 26 26 26 27 31 30 24 26 29 32 38 35 36 48 46 36 35 39 48 53 54 58 62 63 64 66 70 68 62 59 59 58 58 60 62 63 62 61 59 59 59 58 57 55 52 55 63 65 64 63 62 60 58 54 51 47 47 51 53 58 70 80 85 87 87 86 87 86 85 88 89 88 86 83 82 82 80 77
26 26 26 25 24 25 26 25 27 28 28 29 31 30 28 33 35 34 39 37 34 41 40 35 36 37 42 49 54 59 60 61 63 66 68 66 60 59 59 59 61 64 65 64 63 61 62 63 62 61 60 57 56 63 68 66 65 64 61 58 53 49 47 45 47 50 54 65 80 90 90 88 87 85 86 87 87 87 89 91 90 87 84 84 84 84
26 28 26 25 24 24 24 22 23 25 28 30 30 32 34 38 41 42 46 44 38 36 35 36 41 44 42 46 54 59 58 61 66 68 65 62 62 62 63 64 66 65 64 63 63 63 64 65 64 64 63 60 62 68 68 63 62 57 51 48 45 45 45 46 48 51 62 78 89 93 91 87 85 84 85 88 90 89 88 89 89 88 86 86 85 86
27 28 27 25 22 23 26 25 24 26 30 33 33 34 37 39 44 49 52 51 45 39 35 36 45 50 47 48 55 59 60 64 66 66 63 61 63 64 65 67 66 64 64 64 65 66 66 66 67 65 62 62 65 67 64 59 54 48 42 41 44 47 47 48 52 61 76 87 91 92 90 87 84 84 87 91 94 93 91 90 90 88 88 89 88 88
26 26 27 26 22 23 27 29 30 31 33 35 35 36 38 41 43 48 51 49 48 49 46 43 46 48 44 47 57 62 65 65 65 64 63 63 63 64 66 66 65 66 67 67 68 69 69 70 69 66 65 68 68 63 57 50 44 41 40 42 47 49 50 52 60 73 84 89 90 90 87 85 84 87 93 96 96 96 96 96 94 92 91 90 90 90
26 26 28 27 25 26 29 31 32 31 31 34 36 37 40 42 43 48 52 51 52 56 52 43 45 48 45 48 57 63 64 63 63 63 63 64 65 64 65 65 67 69 69 70 72 72 73 72 69 68 70 71 68 60 50 42 39 40 41 46 51 51 53 61 72 82 88 89 89 87 86 86 88 93 99 99 97 96 96 98 99 96 93 92 92 91
29 28 29 28 28 29 30 31 31 31 33 35 37 39 43 45 46 53 58 57 57 58 50 42 48 54 53 55 61 62 63 64 64 64 65 65 65 65 66 68 70 72 73 74 75 75 74 72 71 73 74 69 61 52 43 39 38 41 46 52 55 55 59 70 81 87 90 90 87 86 85 86 91 98 102 100 99 96 93 96 100 96 91 90 92 94
31 30 32 31 29 31 33 31 32 34 35 36 39 42 46 49 50 53 58 61 64 64 58 49 50 57 58 59 62 63 66 70 69 68 69 69 68 69 70 72 73 73 75 76 76 75 72 72 76 76 70 60 51 43 39 38 40 44 51 54 56 62 70 80 87 90 92 90 86 86 86 87 93 100 102 101 99 95 92 93 97 95 90 89 90 94
32 31 34 34 30 31 32 31 34 39 38 38 41 44 49 52 53 54 56 63 69 71 71 63 55 59 61 58 60 65 70 72 72 71 71 71 71 73 74 75 75 75 76 75 75 74 72 73 73 68 58 51 45 41 40 40 42 45 50 54 60 70 79 86 90 92 92 90 87 87 87 89 96 101 101 98 94 92 92 92 94 94 92 91 91 93
33 33 36 35 33 32 33 32 34 38 41 43 44 46 50 53 55 57 56 59 67 72 78 76 63 56 59 58 60 67 71 70 71 72 72 72 73 73 75 76 76 76 76 74 73 73 72 68 62 55 51 46 42 41 41 41 42 44 48 55 65 77 84 89 92 93 93 90 88 89 91 95 100 101 97 94 92 92 95 97 97 96 96 95 95 94
32 34 36 36 35 33 32 33 34 38 41 44 47 49 52 55 58 64 63 60 66 71 74 78 70 58 57 60 61 67 70 70 72 73 73 74 74 75 77 76 75 74 74 74 73 72 67 62 57 52 48 45 44 44 43 42 42 45 48 55 67 79 87 92 95 95 93 90 89 92 96 100 101 97 92 92 95 97 99 99 99 98 99 98 98 97
33 36 38 39 39 35 35 37 38 41 42 43 46 48 52 57 59 64 67 65 69 71 70 76 75 63 59 60 61 66 70 70 72 73 74 75 75 77 78 75 73 72 72 73 72 69 65 61 56 50 45 45 48 48 46 43 44 46 49 54 66 79 88 95 97 95 93 92 93 94 98 101 97 93 92 95 99 100 99 99 98 97 97 96 97 98
37 39 40 39 36 34 36 39 40 43 45 46 48 48 50 56 58 61 66 70 76 77 75 80 76 61 57 59 62 67 71 72 74 74 76 76 76 77 77 74 74 74 73 71 69 67 65 60 52 45 44 47 49 51 50 47 46 48 49 56 68 79 88 95 96 95 94 94 95 96 98 99 95 93 96 99 100 99 98 98 97 94 93 92 95 97
37 40 40 39 38 37 37 38 39 43 45 45 47 51 53 54 57 64 68 74 81 77 75 83 75 56 53 61 64 68 72 73 75 75 77 79 79 79 78 76 77 77 74 70 68 67 64 56 47 44 45 48 50 52 52 49 48 48 51 60 71 79 87 94 96 96 95 95 96 97 98 97 95 94 96 98 99 97 96 97 95 92 90 90 95 99
41 45 43 41 46 48 46 45 44 45 45 44 46 53 56 54 57 64 70 78 81 72 70 80 76 59 56 63 67 70 72 75 76 76 78 80 81 81 80 80 81 80 76 72 71 68 60 52 46 45 46 48 50 51 51 51 49 48 53 64 72 78 86 92 96 97 97 96 97 97 97 96 94 95 96 98 98 97 96 97 95 92 90 90 93 97
46 49 46 45 48 50 49 47 46 48 48 46 48 51 55 58 59 64 74 77 75 74 72 72 73 71 67 68 72 74 76 78 78 79 80 81 82 82 81 81 82 80 77 76 75 66 57 51 49 48 48 48 50 52 50 50 49 48 56 66 72 77 85 93 97 98 97 98 97 97 97 97 96 96 98 99 99 98 97 97 96 94 93 92 92 94
43 45 46 47 49 50 49 47 46 49 48 48 52 52 52 59 61 65 71 69 69 80 76 64 70 79 75 72 76 78 79 80 80 81 82 82 83 82 81 83 82 81 79 78 73 64 57 55 53 52 50 49 52 52 49 48 48 50 58 67 71 76 84 93 98 98 97 97 97 96 96 96 97 98 99 100 100 99 98 97 97 95 94 93 92 92
39 44 46 45 47 50 50 49 48 49 50 51 53 51 49 57 64 65 66 64 69 81 79 70 74 79 75 75 78 78 80 81 82 83 83 82 82 82 83 84 83 82 80 74 67 61 58 56 54 54 51 51 54 53 50 46 45 50 60 67 71 76 84 94 99 97 96 96 95 94 94 95 97 99 99 99 99 100 99 97 97 96 94 93 92 91
39 47 50 46 47 49 49 50 50 50 51 50 50 49 47 53 62 64 64 64 69 76 77 76 77 76 75 77 79 79 81 83 83 83 82 82 83 83 84 85 85 83 75 67 62 60 58 55 53 53 51 51 54 54 50 45 44 51 61 66 71 77 85 95 99 97 96 95 93 92 93 95 97 99 99 99 99 100 99 98 97 96 95 94 94 92
39 46 51 47 48 48 46 48 49 49 51 49 47 48 49 52 58 64 64 65 69 71 71 74 78 78 76 77 79 81 83 83 83 81 81 83 83 84 85 86 84 77 69 64 63 62 62 60 56 53 51 53 55 54 49 43 43 51 60 66 72 79 86 95 100 98 96 96 94 93 94 95 97 99 99 100 100 101 100 100 99 98 98 98 97 95
41 46 51 50 49 46 44 47 48 47 49 51 52 53 53 55 59 63 65 66 71 73 74 78 82 80 76 78 81 82 82 82 82 81 82 83 83 85 88 85 78 71 68 68 68 67 69 68 61 56 54 55 55 53 46 40 41 51 60 66 73 81 87 96 100 98 97 98 97 96 96 96 98 99 99 100 101 101 101 101 100 100 100 100 98 97
46 47 51 53 52 46 43 47 50 50 51 55 58 57 56 56 57 59 62 66 69 73 78 82 81 78 78 81 83 83 83 84 84 83 84 86 87 87 84 79 73 70 70 71 70 69 69 66 62 58 57 57 56 51 43 37 41 52 60 66 74 81 88 97 100 98 97 97 97 98 97 97 100 101 100 101 101 101 102 101 99 101 101 98 96 90
51 52 53 55 53 51 50 49 50 55 58 58 58 57 57 57 57 58 62 68 72 73 76 78 77 78 81 83 84 86 86 87 86 85 86 88 87 83 76 73 71 71 71 70 69 65 61 58 58 57 57 57 53 47 39 35 43 54 61 66 75 83 90 97 99 98 98 98 97 98 97 98 101 101 101 100 100 101 102 100 99 101 99 92 85 76
52 53 55 56 56 57 57 57 59 62 62 60 58 56 57 58 60 62 63 68 74 76 76 78 79 82 84 84 85 87 88 88 87 85 86 84 79 74 72 72 71 70 69 67 63 58 55 56 57 58 58 53 47 42 37 36 45 57 63 68 76 84 92 98 99 98 99 98 98 98 98 99 101 101 102 101 100 101 102 100 101 100 94 83 74 66
50 53 55 57 59 58 57 63 67 63 57 59 60 57 58 61 66 70 70 70 75 78 80 82 83 84 84 84 86 88 90 89 83 78 77 74 71 71 73 72 70 67 65 61 57 56 56 57 59 60 57 47 40 39 37 37 47 58 64 70 78 86 94 99 99 99 98 98 99 98 98 98 98 100 102 103 102 102 100 100 102 96 83 73 67 64
51 55 56 58 61 60 60 65 64 58 57 63 66 64 64 66 70 76 79 77 77 79 82 85 85 85 84 85 89 90 88 82 73 68 69 71 71 71 71 70 67 62 58 56 55 56 57 58 59 59 53 42 38 39 37 39 49 59 65 71 79 88 96 99 99 99 98 98 98 97 95 95 96 97 100 102 103 102 99 101 100 88 73 67 65 66
50 54 57 63 66 65 68 72 72 68 67 69 69 68 68 69 71 76 80 79 79 81 83 86 87 85 86 88 90 89 85 79 72 67 69 73 72 69 67 63 58 56 55 56 57 57 56 56 56 53 46 39 38 39 37 41 52 61 65 71 80 90 97 99 99 99 100 98 97 96 96 96 97 98 100 102 102 99 99 101 94 78 68 67 67 71
53 57 60 66 70 70 73 79 81 79 74 70 69 68 69 72 74 77 79 79 79 83 85 86 87 86 86 88 87 84 82 80 75 71 73 74 68 63 61 56 52 54 55 56 56 55 54 54 52 46 41 39 39 38 38 43 54 62 65 72 82 91 97 99 99 100 101 99 98 98 98 98 99 100 100 101 100 98 99 98 85 71 68 69 71 76
60 64 65 67 71 72 75 78 80 79 74 71 69 69 70 72 74 81 88 84 79 83 86 85 84 83 83 84 81 77 77 78 77 74 73 69 61 56 55 54 54 56 57 55 53 50 49 51 48 42 39 39 40 39 39 45 56 62 67 74 83 91 97 99 100 101 100 98 98 100 100 100 101 102 101 100 98 99 101 93 77 69 70 73 76 80
62 67 67 68 71 74 76 76 76 76 74 71 70 71 72 73 78 87 93 88 82 83 82 79 78 76 76 78 76 74 75 75 73 69 63 59 55 53 54 54 55 55 54 53 51 50 51 50 45 41 40 39 40 39 40 47 57 63 68 76 83 91 98 100 101 101 100 98 99 100 101 101 101 101 101 100 98 101 98 85 72 70 74 78 81 82
62 65 68 71 73 76 77 76 75 75 72 70 71 72 74 82 89 91 87 82 80 78 73 70 71 71 73 75 75 74 71 66 61 58 55 55 55 54 55 56 55 54 50 48 47 50 52 47 40 40 40 39 40 39 41 49 58 65 71 76 82 91 98 101 102 101 99 99 100 99 100 100 99 100 100 100 101 100 91 78 72 75 78 80 82 82
60 63 69 73 74 75 77 81 84 82 75 71 73 74 78 86 90 85 80 78 75 70 65 65 68 70 73 74 72 68 62 57 55 55 55 55 55 56 57 57 57 55 51 48 49 51 49 43 40 40 40 39 39 39 42 50 59 66 73 77 83 92 98 101 102 99 98 99 99 98 97 97 98 100 100 100 101 96 84 75 76 78 79 79 81 82
62 64 70 74 77 79 81 83 83 79 74 74 77 80 82 82 80 78 76 73 68 64 64 65 68 71 73 70 65 59 55 55 56 56 56 56 56 56 55 54 54 53 50 50 52 50 44 41 40 39 39 40 40 40 43 51 59 67 72 76 83 92 99 102 101 97 97 100 98 96 94 94 98 100 100 101 100 91 81 77 78 79 79 79 82 84
62 64 67 71 75 79 79 77 75 73 74 78 80 81 80 78 75 72 70 66 64 64 66 69 71 71 66 60 55 54 55 57 57 56 56 55 53 51 50 49 51 52 50 50 50 46 42 41 40 39 39 40 40 40 44 51 59 67 72 75 82 92 99 102 100 97 99 101 98 94 93 95 98 100 101 102 98 86 80 79 79 79 79 81 83 82
58 59 62 65 66 66 66 69 72 74 77 78 78 79 77 75 72 70 66 65 66 67 68 70 68 62 57 53 53 55 56 57 57 55 52 50 47 45 44 45 47 49 49 48 46 43 42 41 40 39 39 39 40 40 44 52 60 68 72 75 82 93 99 99 98 99 100 100 96 94 94 97 98 99 101 102 95 84 79 79 78 79 81 83 82 80
56 56 58 60 62 64 66 69 73 77 80 80 78 76 74 71 69 69 68 68 68 68 67 64 58 53 51 52 54 57 56 55 55 52 47 43 41 41 43 46 47 47 47 46 44 43 42 41 40 40 39 40 39 40 45 54 62 68 71 74 83 94 97 96 99 101 99 97 96 95 96 98 98 98 100 99 91 83 79 78 77 79 81 79 76 79
59 58 58 59 63 67 68 68 68 69 72 76 76 74 71 70 70 69 68 68 66 62 57 52 50 51 52 53 54 56 54 50 47 45 42 40 40 41 44 46 47 47 45 43 42 42 42 41 41 40 40 40 39 41 47 56 63 68 71 74 85 94 95 95 100 101 97 96 97 97 98 100 99 99 101 98 90 83 80 79 78 78 79 75 73 79
56 58 61 63 66 68 69 69 68 65 65 69 72 73 72 72 71 69 67 65 61 54 49 46 46 48 51 51 49 48 45 41 39 39 40 40 41 43 43 43 44 44 43 41 41 42 42 42 41 40 40 41 40 42 49 57 63 68 71 75 85 93 94 96 99 99 97 97 98 98 99 100 100 101 101 97 89 82 80 80 79 77 74 73 74 81
55 58 63 68 73 75 75 76 77 77 75 74 74 74 73 72 71 68 65 61 55 51 49 46 40 36 37 38 38 37 37 36 37 39 41 41 42 42 42 42 42 42 42 41 41 42 42 42 42 40 40 41 40 43 50 58 65 70 73 77 85 92 96 97 98 98 98 98 98 99 100 100 100 101 101 96 88 81 78 78 78 74 69 68 70 77
57 62 67 73 78 79 77 77 78 81 80 78 76 75 73 72 70 67 62 58 53 49 45 39 33 29 29 31 32 34 36 37 39 41 42 41 41 41 41 41 41 41 41 42 41 42 42 42 41 40 41 40 40 43 52 61 68 73 74 78 86 95 98 98 98 98 99 99 99 100 101 101 100 100 98 92 86 83 82 79 75 72 69 69 71 73